FW3047 Weather Reports


time (UTC)temp
C
wind
direction
speed
KPH
gust
KPH
rain 1hr
cm
rain 24hr
cm
rain mn
cm
humidity
%
barometer
mb
20260507094555 6 44 1.6 4.8 0.00 0.00 0.00 54 1018.3
20260507093053 6 44 3.2 4.8 0.00 0.00 0.00 54 1018.3
20260507091552 6 44 1.6 4.8 0.00 0.00 0.00 54 1018.3
20260507090051 6 44 1.6 3.2 0.00 0.00 0.00 54 1018.4
20260507084554 6 44 1.6 4.8 0.00 0.00 0.00 54 1018.4
20260507083050 6 44 1.6 4.8 0.00 0.00 0.00 53 1018.4
20260507081544 6 44 0.0 0.0 0.00 0.00 0.00 52 1018.6
20260507080057 7 44 0.0 3.2 0.00 0.00 0.00 52 1018.6
20260507074544 7 44 1.6 3.2 0.00 0.00 0.00 52 1018.5
20260507073037 7 44 1.6 4.8 0.00 0.00 0.00 52 1018.6
20260507071552 7 44 1.6 4.8 0.00 0.00 0.00 51 1018.9
20260507070035 7 44 3.2 4.8 0.00 0.00 0.00 51 1019.0
20260507064531 7 44 1.6 4.8 0.00 0.03 0.00 51 1019.3
20260507063032 8 44 1.6 4.8 0.00 0.03 0.00 50 1019.2
20260507061526 8 44 1.6 4.8 0.00 0.03 0.00 48 1019.2
20260507060028 8 44 0.0 0.0 0.00 0.03 0.00 48 1019.2
20260507054521 8 44 0.0 0.0 0.00 0.10 0.00 47 1019.2
20260507053023 8 44 0.0 0.0 0.00 0.10 0.00 46 1019.2
20260507051520 8 44 0.0 0.0 0.00 0.10 0.00 46 1019.2
20260507050016 9 44 0.0 0.0 0.00 0.10 0.00 43 1019.2
20260507044516 9 44 0.0 0.0 0.00 0.10 0.10 44 1019.1
20260507043016 8 44 0.0 0.0 0.00 0.10 0.10 45 1019.1
20260507041515 8 44 0.0 0.0 0.00 0.10 0.10 46 1019.4
20260507040014 8 44 0.0 0.0 0.00 0.10 0.10 48 1019.4
20260507034518 8 44 0.0 0.0 0.00 0.10 0.10 46 1019.5
20260507033014 8 44 0.0 0.0 0.00 0.10 0.10 47 1019.3
20260507031513 8 44 0.0 0.0 0.00 0.10 0.10 45 1019.4
20260507030014 9 44 0.0 0.0 0.00 0.10 0.10 45 1019.3
20260507024512 9 44 0.0 0.0 0.00 0.10 0.10 44 1019.2
20260507023012 10 44 0.0 0.0 0.00 0.10 0.10 43 1019.1
20260507021515 10 44 0.0 0.0 0.00 0.10 0.10 41 1019.0
20260507020011 11 44 0.0 0.0 0.00 0.10 0.10 37 1019.0
20260507014510 12 44 0.0 0.0 0.00 0.10 0.10 33 1018.9
20260507013009 12 44 0.0 0.0 0.00 0.10 0.10 29 1018.9
20260507011516 13 44 0.0 3.2 0.00 0.10 0.10 27 1018.7
20260507010009 13 44 1.6 4.8 0.00 0.10 0.10 24 1018.6
20260507004512 14 44 1.6 6.4 0.00 0.10 0.10 23 1018.7
20260507003009 14 41 3.2 12.9 0.00 0.10 0.10 22 1018.6
20260507001507 15 24 4.8 16.1 0.00 0.10 0.10 21 1018.7
20260507000006 15 32 4.8 17.7 0.00 0.10 0.10 20 1018.8
20260506234510 15 60 6.4 17.7 0.00 0.10 0.10 21 1018.8
20260506233005 15 32 6.4 16.1 0.00 0.10 0.10 20 1018.6
20260506231504 15 54 3.2 24.1 0.00 0.10 0.10 22 1018.8
20260506230004 15 34 8.0 20.9 0.00 0.10 0.10 22 1018.7
20260506224503 15 350 6.4 17.7 0.00 0.10 0.10 20 1018.8
20260506223001 15 44 4.8 17.7 0.00 0.10 0.10 21 1018.7
20260506221501 15 334 6.4 19.3 0.00 0.10 0.10 21 1019.0
20260506220109 15 30 6.4 22.5 0.00 0.10 0.10 21 1018.9
20260506220003 15 9 4.8 22.5 0.00 0.10 0.10 21 1018.9
20260506214558 15 40 4.8 20.9 0.00 0.10 0.10 22 1019.1
20260506213102 15 288 9.7 19.3 0.00 0.10 0.10 21 1019.1
20260506211557 15 355 4.8 25.7 0.00 0.10 0.10 21 1019.4
20260506210107 15 9 8.0 24.1 0.00 0.10 0.10 22 1019.6
20260506204554 15 73 12.9 25.7 0.00 0.10 0.10 23 1019.8
20260506203139 14 360 4.8 17.7 0.00 0.10 0.10 23 1019.9
20260506201551 14 9 8.0 20.9 0.00 0.10 0.10 24 1020.0
20260506200052 14 5 8.0 22.5 0.00 0.10 0.10 23 1020.2
20260506194549 14 69 6.4 16.1 0.00 0.10 0.10 22 1020.4
20260506193045 14 36 6.4 17.7 0.00 0.10 0.10 24 1020.6
20260506191550 13 13 8.0 22.5 0.00 0.10 0.10 22 1020.5
20260506190048 13 70 8.0 22.5 0.00 0.10 0.10 23 1020.5
20260506184551 13 19 4.8 17.7 0.00 0.10 0.10 25 1020.8
20260506183038 12 52 3.2 14.5 0.00 0.10 0.10 23 1021.0
20260506181538 12 16 4.8 19.3 0.00 0.10 0.10 23 1021.3
20260506180038 12 342 9.7 20.9 0.00 0.10 0.10 23 1021.3
20260506174535 12 26 11.3 22.5 0.00 0.10 0.10 23 1021.3
20260506173044 13 63 8.0 19.3 0.00 0.10 0.10 24 1021.2
20260506171535 12 57 12.9 24.1 0.00 0.10 0.10 23 1021.3
20260506170032 12 59 6.4 20.9 0.00 0.10 0.10 26 1021.3
20260506164531 12 51 12.9 25.7 0.00 0.13 0.10 24 1021.2
20260506163050 12 32 14.5 27.4 0.00 0.13 0.10 26 1021.3
20260506161528 12 78 11.3 22.5 0.00 0.13 0.10 29 1021.0
20260506160025 12 34 9.7 20.9 0.00 0.13 0.10 28 1020.8
20260506154532 12 61 11.3 25.7 0.00 0.20 0.10 28 1020.7
20260506153020 12 5 9.7 22.5 0.00 0.20 0.10 28 1020.6
20260506151518 11 76 9.7 22.5 0.00 0.20 0.10 29 1020.6
20260506150016 11 76 8.0 25.7 0.00 0.20 0.10 31 1020.6
20260506144516 11 69 9.7 17.7 0.00 0.41 0.10 34 1020.6
20260506143014 10 42 3.2 12.9 0.00 0.41 0.10 38 1020.5
20260506141506 10 44 4.8 9.7 0.00 0.41 0.10 41 1020.4
20260506140010 10 57 4.8 9.7 0.00 0.41 0.10 43 1020.1
20260506134506 10 69 3.2 14.5 0.00 0.58 0.10 44 1020.1
20260506133002 10 34 6.4 16.1 0.00 0.58 0.10 43 1019.9
20260506131500 9 53 6.4 14.5 0.00 0.58 0.10 44 1019.6
20260506130059 9 34 6.4 12.9 0.00 0.58 0.10 47 1019.6
20260506124558 8 32 4.8 8.0 0.00 0.71 0.10 51 1019.1
20260506123111 8 327 0.0 4.8 0.00 0.71 0.10 56 1018.8
20260506121610 7 317 0.0 4.8 0.00 0.71 0.10 59 1018.7
20260506120052 7 316 0.0 1.6 0.00 0.71 0.10 61 1018.3
20260506114550 7 316 0.0 1.6 0.00 0.71 0.10 60 1018.1
20260506113050 7 316 0.0 1.6 0.00 0.71 0.10 60 1018.0
20260506111550 7 316 0.0 1.6 0.00 0.71 0.10 60 1018.3
20260506110049 7 316 0.0 4.8 0.00 0.71 0.10 60 1018.4
20260506104549 7 313 0.0 6.4 0.00 0.71 0.10 61 1018.3
20260506103046 7 296 1.6 12.9 0.00 0.71 0.10 62 1018.3
20260506101547 7 208 0.0 4.8 0.00 0.71 0.10 63 1017.8
20260506100042 7 208 0.0 6.4 0.00 0.71 0.10 62 1017.2